Miscellaneous Local Product
Issued by NWS Hastings, NE

Home | Current Version | Previous Version | Text Only | Print | Product List | Glossary Off
Versions: 1 2 3 4 5 6 7 8 9 10 11 12 13 14 15 16 17 18 19 20 21 22 23 24 25 26 27 28 29 30 31 32 33 34 35 36 37 38 39 40 41 42 43 44 45 46 47 48 49 50

000
AXUS43 KGID 232002
MISGRI

GID CWA HOURLY WEATHER ROUNDUP
NATIONAL WEATHER SERVICE HASTINGS NE
200 PM CST TUE DEC 23 2014

NOTE: "FAIR" INDICATES FEW OR NO CLOUDS BELOW 12,000 FEET WITH NO
SIGNIFICANT WEATHER AND/OR OBSTRUCTIONS TO VISIBILITY.

...SOUTH CENTRAL NEBRASKA...

CITY           SKY/WX    TMP DP  RH WIND       PRES   REMARKS
GRAND ISLAND   CLOUDY    34  30  85 N26G36    29.86R WCI  21
HASTINGS       LGT SNOW  34  30  85 N23G33    29.83S FOG     WCI  22
KEARNEY        CLOUDY    34  27  75 NW25G33   29.87R WCI  21
ORD            FLURRIES  33  27  78 NW24G37   29.89R WCI  20
YORK           CLOUDY    34  32  93 N20G31    29.80S WCI  22
AURORA         LGT RAIN  35  33  92 N24       29.82R WCI  22
LEXINGTON      CLOUDY    32  27  80 N28G37    29.92R WCI  19
HOLDREGE       CLOUDY    32  27  81 N22G38    29.88R WCI  20
HEBRON         LGT RAIN  35  32  89 N15G24    29.81R WCI  25

...NEBRASKA PANHANDLE...

CITY           SKY/WX    TMP DP  RH WIND       PRES   REMARKS
CHADRON        CLOUDY    30  25  81 E3        30.11F
ALLIANCE       CLOUDY    30  24  78 N23G29    30.07R WCI  17
SCOTTSBLUFF    CLOUDY    32  20  61 NW30G39   30.12S WCI  18
SIDNEY         CLOUDY    30  20  66 N36G44    30.06S WCI  14

...WESTERN AND NORTH CENTRAL NEBRASKA...

CITY           SKY/WX    TMP DP  RH WIND       PRES   REMARKS
VALENTINE      LGT SNOW  28  23  81 NW25G33   30.01S WCI  13
AINSWORTH      CLOUDY    28  24  86 NW25G33   29.98R WCI  14
ONEILL         CLOUDY    33  32  96 N28G37    29.90R FOG     WCI  19
BROKEN BOW     MIX PCPN  31  25  78 N33G41    29.92R WCI  15
IMPERIAL       LGT SNOW  30  23  75 N28G43    30.01R VSB 1   WCI  15
NORTH PLATTE   MIX PCPN  31  22  69 N29G39    29.97S WCI  16
MCCOOK         CLOUDY    32  25  75 N26G33    29.96R WCI  18

...EASTERN NEBRASKA...

CITY           SKY/WX    TMP DP  RH WIND       PRES   REMARKS
NORFOLK        CLOUDY    34  32  92 NW23G29   29.83R WCI  22
SO SIOUX CITY  CLOUDY    38  33  82 N22G28    29.79R WCI  27
TEKAMAH        LGT RAIN  38  35  89 N21G28    29.78R FOG     WCI  28
COLUMBUS       CLOUDY    34  28  80 N20       29.83R WCI  22
ALBION         LGT SNOW  34  31  88 N18G28    29.84R WCI  23
OMAHA EPPLEY   LGT SNOW  36  34  92 N20       29.77R FOG     WCI  25
MILLARD        LGT RAIN  37  34  89 N10       29.76S WCI  29
LINCOLN        LGT RAIN  36  34  92 N15       29.80R WCI  27
NEBRASKA CITY  LGT RAIN  36  36  99 N13       29.74R WCI  27
BEATRICE       MIX PCPN  34  34  98 N13       29.78R WCI  25
FALLS CITY     CLOUDY    38  34  85 NW8       29.75R WCI  32

...NORTHERN KANSAS...

CITY           SKY/WX    TMP DP  RH WIND       PRES   REMARKS
GOODLAND       MIX PCPN  31  25  78 N39G51    29.96S WCI  14
HILL CITY      LGT RAIN  33  26  75 N28G39    29.91S WCI  20
NORTON         LGT SNOW  34  27  75 NW31G38   29.90R WCI  20
PHILLIPSBURG   LGT SNOW  37  30  75 NW24      29.89S WCI  26
SMITH CENTER   FLURRIES  34  30  86 NW30      29.86R WCI  20
BELOIT         CLOUDY    36  34  93 NW15      29.84R WCI  26
HAYS           CLOUDY    34  21  60 N23G33    29.88R WCI  22
RUSSELL        LGT SNOW  34  31  88 NW24      29.85R FOG     WCI  21
CONCORDIA      LGT RAIN  35  34  96 N16G24    29.81R WCI  25
SALINA         FLURRIES  36  33  89 NW17      29.81S WCI  26
TOPEKA         CLOUDY    40  33  76 NW8       29.75F WCI  34



USA.gov is the U.S. government's official web portal to all federal, state and local government web resources and services.